Whidbey Island, WA
on Tuesday, February 26, 2013

Tuesday
Previous Day Next Day
Daily Summary
 ActualAverageRecord
Temperature
Mean Temperature °F / °C °F / °C  
Max Temperature 46°F / 8°C 47°F / 8°C 55°F / 12°C (2004)
Min Temperature 39°F / 4°C 33°F / 0°C 19°F / -7°C (2011)
Degree Days
Heating Degree Days 22    
Moisture
Dew Point 34°F / 1°C   
Average Humidity 70    
Maximum Humidity 82    
Minimum Humidity 56    
Precipitation
Precipitation 0.00 in / 0.00 cm in / cm in / cm ()
Wind
Wind Speed 16 mph / 26 km/h   
Max Wind Speed 31 mph / 50 km/h   
Max Gust Speed 39 mph / 63 km/h   
Visibility 10 miles / 16 kilometers   
Events     
Averages and records for this station are not official NWS values.
Key: T is trace of precipitation, MM is missing value
Source: NWS Daily Summary
Seasonal Weather Averages
Time(PST)TemperatureDew PointHumidity Pressure Visibility Wind DirectionWind SpeedGust SpeedPrecipitationEvents Conditions
12:56 AM 44.1°F / 6.7°C 34.0°F / 1.1°C 68% 30.30 in / 1026.0 hPa 10.0 miles / 16.1 kilometers WSW 13.8 mph / 22.2 km/h - N/A   Mostly Cloudy
1:56 AM 42.1°F / 5.6°C 34.0°F / 1.1°C 73% 30.32 in / 1026.7 hPa 10.0 miles / 16.1 kilometers South 9.2 mph / 14.8 km/h - N/A   Overcast
2:56 AM 41.0°F / 5.0°C 35.1°F / 1.7°C 79% 30.32 in / 1026.8 hPa 10.0 miles / 16.1 kilometers South 9.2 mph / 14.8 km/h - N/A   Mostly Cloudy
3:56 AM 39.0°F / 3.9°C 34.0°F / 1.1°C 82% 30.32 in / 1026.8 hPa 10.0 miles / 16.1 kilometers SSE 11.5 mph / 18.5 km/h - N/A   Mostly Cloudy
4:56 AM 39.0°F / 3.9°C 34.0°F / 1.1°C 82% 30.33 in / 1027.1 hPa 10.0 miles / 16.1 kilometers SE 9.2 mph / 14.8 km/h - N/A   Mostly Cloudy
5:56 AM 39.0°F / 3.9°C 34.0°F / 1.1°C 82% 30.34 in / 1027.2 hPa 10.0 miles / 16.1 kilometers SE 13.8 mph / 22.2 km/h - N/A   Mostly Cloudy
6:56 AM 39.0°F / 3.9°C 33.1°F / 0.6°C 79% 30.33 in / 1027.1 hPa 9.0 miles / 14.5 kilometers SE 12.7 mph / 20.4 km/h - N/A   Overcast
7:56 AM 39.9°F / 4.4°C 34.0°F / 1.1°C 79% 30.34 in / 1027.2 hPa 9.0 miles / 14.5 kilometers ESE 12.7 mph / 20.4 km/h - N/A   Overcast
8:56 AM 41.0°F / 5.0°C 35.1°F / 1.7°C 79% 30.34 in / 1027.2 hPa 9.0 miles / 14.5 kilometers ESE 15.0 mph / 24.1 km/h - N/A   Overcast
9:56 AM 43.0°F / 6.1°C 35.1°F / 1.7°C 74% 30.32 in / 1026.8 hPa 9.0 miles / 14.5 kilometers SE 17.3 mph / 27.8 km/h 25.3 mph / 40.7 km/h N/A   Overcast
10:56 AM 44.1°F / 6.7°C 35.1°F / 1.7°C 71% 30.30 in / 1025.8 hPa 9.0 miles / 14.5 kilometers ESE 15.0 mph / 24.1 km/h 21.9 mph / 35.2 km/h N/A   Overcast
11:56 AM 45.0°F / 7.2°C 35.1°F / 1.7°C 68% 30.28 in / 1025.4 hPa 10.0 miles / 16.1 kilometers SE 16.1 mph / 25.9 km/h 24.2 mph / 38.9 km/h N/A   Overcast
12:24 PM 46.4°F / 8.0°C 35.6°F / 2.0°C 66% 30.26 in / 1024.6 hPa 10.0 miles / 16.1 kilometers SE 19.6 mph / 31.5 km/h 24.2 mph / 38.9 km/h N/A   Overcast
12:56 PM 46.0°F / 7.8°C 35.1°F / 1.7°C 66% 30.27 in / 1024.8 hPa 10.0 miles / 16.1 kilometers SE 19.6 mph / 31.5 km/h 24.2 mph / 38.9 km/h N/A   Overcast
1:56 PM 46.9°F / 8.3°C 32.0°F / 0.0°C 56% 30.25 in / 1024.2 hPa 10.0 miles / 16.1 kilometers SSE 18.4 mph / 29.6 km/h 27.6 mph / 44.4 km/h N/A   Overcast
2:56 PM 46.0°F / 7.8°C 32.0°F / 0.0°C 58% 30.24 in / 1024.0 hPa 10.0 miles / 16.1 kilometers SSE 21.9 mph / 35.2 km/h 28.8 mph / 46.3 km/h N/A   Overcast
3:56 PM 46.0°F / 7.8°C 32.0°F / 0.0°C 58% 30.22 in / 1023.1 hPa 10.0 miles / 16.1 kilometers SE 17.3 mph / 27.8 km/h 25.3 mph / 40.7 km/h N/A   Overcast
4:56 PM 46.0°F / 7.8°C 30.9°F / -0.6°C 56% 30.20 in / 1022.5 hPa 10.0 miles / 16.1 kilometers SE 18.4 mph / 29.6 km/h 26.5 mph / 42.6 km/h N/A   Overcast
5:56 PM 46.0°F / 7.8°C 32.0°F / 0.0°C 58% 30.18 in / 1022.0 hPa 10.0 miles / 16.1 kilometers SE 23.0 mph / 37.0 km/h 31.1 mph / 50.0 km/h N/A   Mostly Cloudy
6:56 PM 45.0°F / 7.2°C 35.1°F / 1.7°C 68% 30.17 in / 1021.6 hPa 10.0 miles / 16.1 kilometers SE 27.6 mph / 44.4 km/h 36.8 mph / 59.3 km/h N/A   Mostly Cloudy
7:56 PM 45.0°F / 7.2°C 35.1°F / 1.7°C 68% 30.17 in / 1021.5 hPa 10.0 miles / 16.1 kilometers SSE 26.5 mph / 42.6 km/h 35.7 mph / 57.4 km/h N/A   Mostly Cloudy
8:56 PM 44.1°F / 6.7°C 34.0°F / 1.1°C 68% 30.17 in / 1021.4 hPa 10.0 miles / 16.1 kilometers SSE 31.1 mph / 50.0 km/h 39.1 mph / 63.0 km/h N/A   Mostly Cloudy
9:56 PM 43.0°F / 6.1°C 34.0°F / 1.1°C 71% 30.16 in / 1021.1 hPa 10.0 miles / 16.1 kilometers SE 26.5 mph / 42.6 km/h 34.5 mph / 55.6 km/h N/A   Mostly Cloudy
10:56 PM 44.1°F / 6.7°C 35.1°F / 1.7°C 71% 30.19 in / 1022.1 hPa 10.0 miles / 16.1 kilometers SSE 24.2 mph / 38.9 km/h 32.2 mph / 51.9 km/h N/A   Overcast
11:56 PM 43.0°F / 6.1°C 35.1°F / 1.7°C 74% 30.20 in / 1022.7 hPa 10.0 miles / 16.1 kilometers South 23.0 mph / 37.0 km/h 28.8 mph / 46.3 km/h N/A   Overcast
Moon Phase
Feb. 26 Mar. 04 Mar. 11 Mar. 19 Mar. 27
Sunrise:06:57 AM (PST) Moon Rise:07:24 PM (PST)2/26
Sunset:05:50 PM (PST) Moon Set:06:54 AM (PST)2/26

Copyright © 2014 The Weather Underground, Inc.